Погода в Тойде 1-ой

Россия / Воронежская область     51°32′52″N   40°08′15″E
темп.,
°C
ветер,
м/с
пор.,
м/с
влажн.,
%
обл.,
%
осадки,
мм/ч
давл.,
гПа
погр.,
м
22 апреля, чт
чт2200:00+6ююз37885 0.0 1017127
03:00+5зюз35945 0.0 1018114
06:00+5юз24945 0.0 101979
09:00+10юз35747 0.0 1020696
12:00+14зюз565360 0.1 10211774
15:00+14юз454791 0.1 10201899
18:00+14сз005898 0.0 102012
21:00+12ю3460100 0.0 102176
23 апреля, пт
пт2300:00+11ююз3570100 0.0 1021108
03:00+10ю3674100 0.0 1021113
06:00+8ю347991 0.0 102173
09:00+13ю456271 0.0 1020509
12:00+15ю555312 0.9 10191517
15:00+16ююв455043 1.9 10171940
18:00+15ююв356118 1.9 1016249
21:00+11юв488199 2.0 1016198
24 апреля, сб
сб2400:00+10ююв51086100 0.0 1013235
03:00+9ююз3989100 0.3 1012285
06:00+8юз4792100 0.2 1011610
09:00+5зсз5993100 3.6 1012738
12:00+10з685675 0.6 10121817
15:00+10з81054100 1.6 10121946
18:00+9з710505 0.4 10121283
21:00+5з61170100 0.4 1014411
25 апреля, вс
вс2500:00+4зюз7117111 0.2 10141024
03:00+3з7148638 0.3 1015954
06:00+2з612805 0.0 1017533
09:00+6з69595 0.0 10181101
12:00+9з7842100 0.1 10182714
15:00+9зюз683868 0.1 10182219
18:00+9юз57465 0.0 1017767
21:00+5ююз411625 0.0 1018211
26 апреля, пн
пн2600:00+5ююз5146093 0.0 1017345
03:00+4зюз378699 0.0 1018545
06:00+5ююз2387100 0.0 1017261
09:00+6ю1485100 0.4 1017800
12:00+4зсз3594100 2.6 1016610
15:00+4з3595100 3.6 1016423
18:00+6зюз357656 0.1 1015821
21:00+4юз358113 0.5 101581